Weather Roundup
Issued by NWS Chicago, IL

Home | Current Version | Previous Version | Text Only | Print | Product List | Glossary Off
Versions: 1 2 3 4 5 6 7 8 9 10 11 12 13 14 15 16 17 18 19 20 21 22 23 24 25 26 27 28 29 30 31 32 33 34 35 36 37 38 39 40 41 42 43 44 45 46 47 48 49 50

000
NZUS59 KLOT 261604
HRRLOT

CHICAGO AREA WEATHER ROUNDUP
NATIONAL WEATHER SERVICE CHICAGO/ROMEOVILLE IL
1100 AM CDT WED JUL 26 2017

NOTE: "FAIR" INDICATES FEW OR NO CLOUDS BELOW 12,000 FEET WITH NO
SIGNIFICANT WEATHER AND/OR OBSTRUCTIONS TO VISIBILITY.

* THESE STATIONS ARE NOT UNDER NWS QUALITY CONTROL. THEY ALSO MAY NOT
  REPORT WEATHER SUCH AS PRECIPITATION OR FOG.

ILZ005-006-012>014-019>023-261700-
NORTHEAST ILLINOIS

CITY           SKY/WX    TMP DP  RH WIND       PRES   REMARKS
OHARE          CLOUDY    79  66  64 SW7       30.06F HX  81
MIDWAY         CLOUDY    79  66  64 S9        30.07F HX  81
AURORA         CLOUDY    78  69  73 S8        30.08F HX  80
LANSING*       CLOUDY    77  65  65 SW7       30.09F
JOLIET*        MOSUNNY   78  69  72 S5        30.09S HX  81
WAUKEGAN       CLOUDY    80  69  69 SW10      30.05F HX  83
DUPAGE AIRPORT MOSUNNY   78  69  73 S7        30.06F HX  80
WHEELING       MOSUNNY   80  68  66 SW7       30.07F HX  83
MORRIS*        CLOUDY    77  69  76 SE5       30.07S
LEWIS AIRPORT* CLOUDY    78  65  66 S7        30.08F HX  80
NORTHERLY ISL    N/A     79  62  56 SW3         N/A  HX  80
$$

WIZ051-052-058>065-066-070>072-261700-
SOUTHEAST WISCONSIN

CITY           SKY/WX    TMP DP  RH WIND       PRES   REMARKS
MILWAUKEE      PTSUNNY   79  68  69 SW14      30.04F HX  81
KENOSHA*       PTSUNNY   80  68  66 SW8       30.06F HX  83
RACINE*        MOSUNNY   81  70  69 S10       30.06F HX  84
WAUKESHA       SUNNY     75  66  73 SW10      30.06S
$$

INZ001>003-010>013-019-020-261700-
NORTHWEST INDIANA

CITY           SKY/WX    TMP DP  RH WIND       PRES   REMARKS
GARY*          PTSUNNY   81  63  54 S8        30.09F HX  82
MICHIGAN CITY* NOT AVBL
RENSSELAER*    NOT AVBL
VALPARAISO     SUNNY     77  68  73 S8        30.10F
$$

LMZ740>746-261700-
SOUTHERN LAKE MICHIGAN

STATION/POSITION TIME  SKY/WX   TEMP WIND        PRES    VSBY
                                AIR  DIR/SP/G
                 (UTC)          (F)  (DEG/KT/KT) (MB)    (MI)
HARRISON CRIB    1540            75  170/ 11/ 11   N/A
BURNHAM HARBOR   1600            80                N/A
CALUMET HARBOR   1530            77  180/  5/  8 1018.2F
BURNS HARBOR     1540            77  190/  8/ 12 1019.3F
MICHIGAN CITY    1540            74  170/ 12/ 13   N/A
$$

ABBREVIATIONS USED IN REMARKS
   TC - TEMPERATURE IN CELSIUS
  WCI - WIND CHILL INDEX
   HX - HEAT INDEX
  VSB - VISIBILITY
$$




USA.gov is the U.S. government's official web portal to all federal, state and local government web resources and services.